Location: Castillon
(43.0896°N, 0.2156°E)
Time: 09:59:04
(UTC+00:00)

Cosmos 1544 Rocket - Pass Details

Date: 30 October 2021
Orbit: 603 x 631 km, 82.5° (Epoch: 08 December)

Event Time Altitude Azimuth Distance (km) Brightness Sun altitude
Rises 04:50:28 0° 346° (NNW) 2,897 6.8 -18.9°
Reaches altitude 10° 04:52:45 10° 341° (NNW) 1,982 5.9 -18.5°
Maximum altitude 04:56:58 49° 267° (W) 793 3.7 -17.7°
Drops below altitude 10° 05:01:08 10° 192° (SSW) 1,952 6.0 -17.0°
Sets 05:03:23 0° 187° (S) 2,847 6.9 -16.6°
